PWSweather.com
Personal Weather Stations
Station Observations
KNCCHINA3
Red Tractor Trail, China Grove, NC 28023

Red Tractor TrailChina Grove, NC 28023

Lat: 35.59751, Lon: -80.60201

Elevation: 800

Station Type: Oregon Scientific WMR 968

http://www.joesweathergarage.com

High Low Average
Temperature 69.4°F20.8°F 41.9°F5.5°F 54.7°F12.6°F
Dew Point 57.0°F13.9°F 36.1°F2.3°F 44.4°F6.9°F
Winds Calm Calm Calm Calm Calm Calm
Wind Gusts -- -- --
Humidity 100% 34% 75%
Pressure 30.13 in1020.30 in 29.98 in1015.20 in -
Precipitation 0.00 in0.00 in - -
Hour Temp Dew Point Humidity Winds Wind Gusts Pressure Precip Precip Rate Daily Precip Total
12:01 AM 45.3°F7.4°C 45.3°F7.4°C 100% - N16091.8 kmh N -- 30.13 in1020.3 mb 0.00 in0.0 mm 0.00 in/hr0.0 mm/hr 0.00 in0.0 mm
12:06 AM 45.3°F7.4°C 45.3°F7.4°C 100% - N16091.8 kmh N -- 30.13 in1020.3 mb 0.00 in0.0 mm 0.00 in/hr0.0 mm/hr 0.00 in0.0 mm
12:10 AM 45.1°F7.3°C 45.1°F7.3°C 100% - N16091.8 kmh N -- 30.13 in1020.3 mb 0.00 in0.0 mm 0.00 in/hr0.0 mm/hr 0.00 in0.0 mm
12:16 AM 45.1°F7.3°C 45.1°F7.3°C 100% - N16091.8 kmh N -- 30.13 in1020.3 mb 0.00 in0.0 mm 0.00 in/hr0.0 mm/hr 0.00 in0.0 mm
12:21 AM 45.0°F7.2°C 45.0°F7.2°C 100% - N16091.8 kmh N -- 30.13 in1020.3 mb 0.00 in0.0 mm 0.00 in/hr0.0 mm/hr 0.00 in0.0 mm
12:26 AM 44.8°F7.1°C 44.8°F7.1°C 100% - N16091.8 kmh N -- 30.13 in1020.3 mb 0.00 in0.0 mm 0.00 in/hr0.0 mm/hr 0.00 in0.0 mm
12:31 AM 44.8°F7.1°C 44.8°F7.1°C 100% - N16091.8 kmh N -- 30.10 in1019.3 mb 0.00 in0.0 mm 0.00 in/hr0.0 mm/hr 0.00 in0.0 mm
12:37 AM 45.0°F7.2°C 45.0°F7.2°C 100% - N16091.8 kmh N -- 30.10 in1019.3 mb 0.00 in0.0 mm 0.00 in/hr0.0 mm/hr 0.00 in0.0 mm
12:42 AM 45.0°F7.2°C 45.0°F7.2°C 100% - N16091.8 kmh N -- 30.10 in1019.3 mb 0.00 in0.0 mm 0.00 in/hr0.0 mm/hr 0.00 in0.0 mm
12:47 AM 44.8°F7.1°C 44.8°F7.1°C 100% - N16091.8 kmh N -- 30.13 in1020.3 mb 0.00 in0.0 mm 0.00 in/hr0.0 mm/hr 0.00 in0.0 mm
12:52 AM 44.8°F7.1°C 44.8°F7.1°C 100% - N16091.8 kmh N -- 30.13 in1020.3 mb 0.00 in0.0 mm 0.00 in/hr0.0 mm/hr 0.00 in0.0 mm
12:57 AM 44.6°F7.0°C 44.6°F7.0°C 100% - N16091.8 kmh N -- 30.13 in1020.3 mb 0.00 in0.0 mm 0.00 in/hr0.0 mm/hr 0.00 in0.0 mm
01:02 AM 44.6°F7.0°C 44.6°F7.0°C 100% - N16091.8 kmh N -- 30.13 in1020.3 mb 0.00 in0.0 mm 0.00 in/hr0.0 mm/hr 0.00 in0.0 mm
01:08 AM 44.6°F7.0°C 44.6°F7.0°C 100% - N16091.8 kmh N -- 30.13 in1020.3 mb 0.00 in0.0 mm 0.00 in/hr0.0 mm/hr 0.00 in0.0 mm
01:13 AM 44.6°F7.0°C 44.6°F7.0°C 100% - N16091.8 kmh N -- 30.13 in1020.3 mb 0.00 in0.0 mm 0.00 in/hr0.0 mm/hr 0.00 in0.0 mm
01:18 AM 44.4°F6.9°C 44.4°F6.9°C 100% - N16091.8 kmh N -- 30.13 in1020.3 mb 0.00 in0.0 mm 0.00 in/hr0.0 mm/hr 0.00 in0.0 mm
01:23 AM 44.2°F6.8°C 44.2°F6.8°C 100% - N16091.8 kmh N -- 30.13 in1020.3 mb 0.00 in0.0 mm 0.00 in/hr0.0 mm/hr 0.00 in0.0 mm
01:28 AM 44.1°F6.7°C 44.1°F6.7°C 100% - N16091.8 kmh N -- 30.13 in1020.3 mb 0.00 in0.0 mm 0.00 in/hr0.0 mm/hr 0.00 in0.0 mm
01:33 AM 44.1°F6.7°C 44.1°F6.7°C 100% - N16091.8 kmh N -- 30.13 in1020.3 mb 0.00 in0.0 mm 0.00 in/hr0.0 mm/hr 0.00 in0.0 mm
01:37 AM 44.1°F6.7°C 44.1°F6.7°C 100% - N16091.8 kmh N -- 30.13 in1020.3 mb 0.00 in0.0 mm 0.00 in/hr0.0 mm/hr 0.00 in0.0 mm
01:42 AM 44.1°F6.7°C 44.1°F6.7°C 100% - N16091.8 kmh N -- 30.13 in1020.3 mb 0.00 in0.0 mm 0.00 in/hr0.0 mm/hr 0.00 in0.0 mm
01:49 AM 44.1°F6.7°C 44.1°F6.7°C 100% - N16091.8 kmh N -- 30.13 in1020.3 mb 0.00 in0.0 mm 0.00 in/hr0.0 mm/hr 0.00 in0.0 mm
01:54 AM 44.1°F6.7°C 44.1°F6.7°C 100% - N16091.8 kmh N -- 30.13 in1020.3 mb 0.00 in0.0 mm 0.00 in/hr0.0 mm/hr 0.00 in0.0 mm
01:58 AM 43.9°F6.6°C 43.9°F6.6°C 100% - N16091.8 kmh N -- 30.13 in1020.3 mb 0.00 in0.0 mm 0.00 in/hr0.0 mm/hr 0.00 in0.0 mm
02:03 AM 43.9°F6.6°C 43.9°F6.6°C 100% - N16091.8 kmh N -- 30.13 in1020.3 mb 0.00 in0.0 mm 0.00 in/hr0.0 mm/hr 0.00 in0.0 mm
02:09 AM 43.9°F6.6°C 43.9°F6.6°C 100% - N16091.8 kmh N -- 30.13 in1020.3 mb 0.00 in0.0 mm 0.00 in/hr0.0 mm/hr 0.00 in0.0 mm
02:13 AM 43.9°F6.6°C 43.9°F6.6°C 100% - N16091.8 kmh N -- 30.10 in1019.3 mb 0.00 in0.0 mm 0.00 in/hr0.0 mm/hr 0.00 in0.0 mm
02:19 AM 43.9°F6.6°C 43.9°F6.6°C 100% - N16091.8 kmh N -- 30.10 in1019.3 mb 0.00 in0.0 mm 0.00 in/hr0.0 mm/hr 0.00 in0.0 mm
02:24 AM 43.9°F6.6°C 43.9°F6.6°C 100% - N16091.8 kmh N -- 30.10 in1019.3 mb 0.00 in0.0 mm 0.00 in/hr0.0 mm/hr 0.00 in0.0 mm
02:29 AM 43.9°F6.6°C 43.9°F6.6°C 100% - N16091.8 kmh N -- 30.10 in1019.3 mb 0.00 in0.0 mm 0.00 in/hr0.0 mm/hr 0.00 in0.0 mm
02:34 AM 43.9°F6.6°C 43.9°F6.6°C 100% - N16091.8 kmh N -- 30.10 in1019.3 mb 0.00 in0.0 mm 0.00 in/hr0.0 mm/hr 0.00 in0.0 mm
02:40 AM 43.7°F6.5°C 43.7°F6.5°C 100% - N16091.8 kmh N -- 30.10 in1019.3 mb 0.00 in0.0 mm 0.00 in/hr0.0 mm/hr 0.00 in0.0 mm
02:45 AM 43.5°F6.4°C 43.5°F6.4°C 100% - N16091.8 kmh N -- 30.10 in1019.3 mb 0.00 in0.0 mm 0.00 in/hr0.0 mm/hr 0.00 in0.0 mm
02:50 AM 43.5°F6.4°C 43.5°F6.4°C 100% - N16091.8 kmh N -- 30.10 in1019.3 mb 0.00 in0.0 mm 0.00 in/hr0.0 mm/hr 0.00 in0.0 mm
02:55 AM 43.5°F6.4°C 43.5°F6.4°C 100% - N16091.8 kmh N -- 30.10 in1019.3 mb 0.00 in0.0 mm 0.00 in/hr0.0 mm/hr 0.00 in0.0 mm
03:00 AM 43.5°F6.4°C 43.5°F6.4°C 100% - N16091.8 kmh N -- 30.10 in1019.3 mb 0.00 in0.0 mm 0.00 in/hr0.0 mm/hr 0.00 in0.0 mm
03:05 AM 43.7°F6.5°C 43.7°F6.5°C 100% - N16091.8 kmh N -- 30.10 in1019.3 mb 0.00 in0.0 mm 0.00 in/hr0.0 mm/hr 0.00 in0.0 mm
03:10 AM 43.9°F6.6°C 43.9°F6.6°C 100% - N16091.8 kmh N -- 30.10 in1019.3 mb 0.00 in0.0 mm 0.00 in/hr0.0 mm/hr 0.00 in0.0 mm
03:15 AM 43.9°F6.6°C 43.9°F6.6°C 100% - N16091.8 kmh N -- 30.10 in1019.3 mb 0.00 in0.0 mm 0.00 in/hr0.0 mm/hr 0.00 in0.0 mm
03:20 AM 44.1°F6.7°C 44.1°F6.7°C 100% - N16091.8 kmh N -- 30.10 in1019.3 mb 0.00 in0.0 mm 0.00 in/hr0.0 mm/hr 0.00 in0.0 mm
03:25 AM 44.1°F6.7°C 44.1°F6.7°C 100% - N16091.8 kmh N -- 30.10 in1019.3 mb 0.00 in0.0 mm 0.00 in/hr0.0 mm/hr 0.00 in0.0 mm
03:30 AM 44.1°F6.7°C 44.1°F6.7°C 100% - N16091.8 kmh N -- 30.10 in1019.3 mb 0.00 in0.0 mm 0.00 in/hr0.0 mm/hr 0.00 in0.0 mm
03:35 AM 44.1°F6.7°C 44.1°F6.7°C 100% - N16091.8 kmh N -- 30.10 in1019.3 mb 0.00 in0.0 mm 0.00 in/hr0.0 mm/hr 0.00 in0.0 mm
03:40 AM 43.9°F6.6°C 43.9°F6.6°C 100% - N16091.8 kmh N -- 30.10 in1019.3 mb 0.00 in0.0 mm 0.00 in/hr0.0 mm/hr 0.00 in0.0 mm
03:45 AM 43.9°F6.6°C 43.9°F6.6°C 100% - N16091.8 kmh N -- 30.10 in1019.3 mb 0.00 in0.0 mm 0.00 in/hr0.0 mm/hr 0.00 in0.0 mm
03:50 AM 43.7°F6.5°C 43.7°F6.5°C 100% - N16091.8 kmh N -- 30.10 in1019.3 mb 0.00 in0.0 mm 0.00 in/hr0.0 mm/hr 0.00 in0.0 mm
03:56 AM 43.5°F6.4°C 43.5°F6.4°C 100% - N16091.8 kmh N -- 30.10 in1019.3 mb 0.00 in0.0 mm 0.00 in/hr0.0 mm/hr 0.00 in0.0 mm
04:01 AM 43.5°F6.4°C 43.5°F6.4°C 100% - N16091.8 kmh N -- 30.10 in1019.3 mb 0.00 in0.0 mm 0.00 in/hr0.0 mm/hr 0.00 in0.0 mm
04:05 AM 43.3°F6.3°C 43.3°F6.3°C 100% - N16091.8 kmh N -- 30.10 in1019.3 mb 0.00 in0.0 mm 0.00 in/hr0.0 mm/hr 0.00 in0.0 mm
04:11 AM 43.3°F6.3°C 43.3°F6.3°C 100% - N16091.8 kmh N -- 30.10 in1019.3 mb 0.00 in0.0 mm 0.00 in/hr0.0 mm/hr 0.00 in0.0 mm
04:16 AM 43.3°F6.3°C 43.3°F6.3°C 100% - N16091.8 kmh N -- 30.10 in1019.3 mb 0.00 in0.0 mm 0.00 in/hr0.0 mm/hr 0.00 in0.0 mm
04:20 AM 43.3°F6.3°C 43.3°F6.3°C 100% - N16091.8 kmh N -- 30.10 in1019.3 mb 0.00 in0.0 mm 0.00 in/hr0.0 mm/hr 0.00 in0.0 mm
04:25 AM 43.2°F6.2°C 43.2°F6.2°C 100% - N16091.8 kmh N -- 30.10 in1019.3 mb 0.00 in0.0 mm 0.00 in/hr0.0 mm/hr 0.00 in0.0 mm
04:31 AM 43.0°F6.1°C 43.0°F6.1°C 100% - N16091.8 kmh N -- 30.10 in1019.3 mb 0.00 in0.0 mm 0.00 in/hr0.0 mm/hr 0.00 in0.0 mm
04:36 AM 43.0°F6.1°C 43.0°F6.1°C 100% - N16091.8 kmh N -- 30.10 in1019.3 mb 0.00 in0.0 mm 0.00 in/hr0.0 mm/hr 0.00 in0.0 mm
04:42 AM 42.8°F6.0°C 42.8°F6.0°C 100% - N16091.8 kmh N -- 30.10 in1019.3 mb 0.00 in0.0 mm 0.00 in/hr0.0 mm/hr 0.00 in0.0 mm
04:47 AM 42.8°F6.0°C 42.8°F6.0°C 100% - N16091.8 kmh N -- 30.10 in1019.3 mb 0.00 in0.0 mm 0.00 in/hr0.0 mm/hr 0.00 in0.0 mm
04:52 AM 42.6°F5.9°C 42.6°F5.9°C 100% - N16091.8 kmh N -- 30.10 in1019.3 mb 0.00 in0.0 mm 0.00 in/hr0.0 mm/hr 0.00 in0.0 mm
04:57 AM 42.6°F5.9°C 42.6°F5.9°C 100% - N16091.8 kmh N -- 30.10 in1019.3 mb 0.00 in0.0 mm 0.00 in/hr0.0 mm/hr 0.00 in0.0 mm
05:02 AM 42.8°F6.0°C 42.8°F6.0°C 100% - N16091.8 kmh N -- 30.10 in1019.3 mb 0.00 in0.0 mm 0.00 in/hr0.0 mm/hr 0.00 in0.0 mm
05:06 AM 43.0°F6.1°C 43.0°F6.1°C 100% - N16091.8 kmh N -- 30.10 in1019.3 mb 0.00 in0.0 mm 0.00 in/hr0.0 mm/hr 0.00 in0.0 mm
05:11 AM 43.0°F6.1°C 43.0°F6.1°C 100% - N16091.8 kmh N -- 30.10 in1019.3 mb 0.00 in0.0 mm 0.00 in/hr0.0 mm/hr 0.00 in0.0 mm
05:17 AM 43.0°F6.1°C 43.0°F6.1°C 100% - N16091.8 kmh N -- 30.10 in1019.3 mb 0.00 in0.0 mm 0.00 in/hr0.0 mm/hr 0.00 in0.0 mm
05:23 AM 43.0°F6.1°C 43.0°F6.1°C 100% - N16091.8 kmh N -- 30.10 in1019.3 mb 0.00 in0.0 mm 0.00 in/hr0.0 mm/hr 0.00 in0.0 mm
05:28 AM 42.8°F6.0°C 42.8°F6.0°C 100% - N16091.8 kmh N -- 30.13 in1020.3 mb 0.00 in0.0 mm 0.00 in/hr0.0 mm/hr 0.00 in0.0 mm
05:33 AM 42.8°F6.0°C 42.8°F6.0°C 100% - N16091.8 kmh N -- 30.13 in1020.3 mb 0.00 in0.0 mm 0.00 in/hr0.0 mm/hr 0.00 in0.0 mm
05:38 AM 42.8°F6.0°C 42.8°F6.0°C 100% - N16091.8 kmh N -- 30.13 in1020.3 mb 0.00 in0.0 mm 0.00 in/hr0.0 mm/hr 0.00 in0.0 mm
05:43 AM 42.8°F6.0°C 42.8°F6.0°C 100% - N16091.8 kmh N -- 30.13 in1020.3 mb 0.00 in0.0 mm 0.00 in/hr0.0 mm/hr 0.00 in0.0 mm
05:48 AM 42.8°F6.0°C 42.8°F6.0°C 100% - N16091.8 kmh N -- 30.13 in1020.3 mb 0.00 in0.0 mm 0.00 in/hr0.0 mm/hr 0.00 in0.0 mm
05:53 AM 42.8°F6.0°C 42.8°F6.0°C 100% - N16091.8 kmh N -- 30.13 in1020.3 mb 0.00 in0.0 mm 0.00 in/hr0.0 mm/hr 0.00 in0.0 mm
05:58 AM 42.4°F5.8°C 42.4°F5.8°C 100% - N16091.8 kmh N -- 30.13 in1020.3 mb 0.00 in0.0 mm 0.00 in/hr0.0 mm/hr 0.00 in0.0 mm
06:04 AM 42.3°F5.7°C 42.3°F5.7°C 100% - N16091.8 kmh N -- 30.13 in1020.3 mb 0.00 in0.0 mm 0.00 in/hr0.0 mm/hr 0.00 in0.0 mm
06:09 AM 42.3°F5.7°C 42.3°F5.7°C 100% - N16091.8 kmh N -- 30.13 in1020.3 mb 0.00 in0.0 mm 0.00 in/hr0.0 mm/hr 0.00 in0.0 mm
06:14 AM 42.3°F5.7°C 42.3°F5.7°C 100% - N16091.8 kmh N -- 30.13 in1020.3 mb 0.00 in0.0 mm 0.00 in/hr0.0 mm/hr 0.00 in0.0 mm
06:19 AM 42.1°F5.6°C 42.1°F5.6°C 100% - N16091.8 kmh N -- 30.13 in1020.3 mb 0.00 in0.0 mm 0.00 in/hr0.0 mm/hr 0.00 in0.0 mm
06:24 AM 42.1°F5.6°C 42.1°F5.6°C 100% - N16091.8 kmh N -- 30.13 in1020.3 mb 0.00 in0.0 mm 0.00 in/hr0.0 mm/hr 0.00 in0.0 mm
06:29 AM 41.9°F5.5°C 41.9°F5.5°C 100% - N16091.8 kmh N -- 30.13 in1020.3 mb 0.00 in0.0 mm 0.00 in/hr0.0 mm/hr 0.00 in0.0 mm
06:34 AM 41.9°F5.5°C 41.9°F5.5°C 100% - N16091.8 kmh N -- 30.13 in1020.3 mb 0.00 in0.0 mm 0.00 in/hr0.0 mm/hr 0.00 in0.0 mm
06:39 AM 42.1°F5.6°C 42.1°F5.6°C 100% - N16091.8 kmh N -- 30.13 in1020.3 mb 0.00 in0.0 mm 0.00 in/hr0.0 mm/hr 0.00 in0.0 mm
06:45 AM 42.1°F5.6°C 42.1°F5.6°C 100% - N16091.8 kmh N -- 30.13 in1020.3 mb 0.00 in0.0 mm 0.00 in/hr0.0 mm/hr 0.00 in0.0 mm
06:50 AM 42.1°F5.6°C 42.1°F5.6°C 100% - N16091.8 kmh N -- 30.13 in1020.3 mb 0.00 in0.0 mm 0.00 in/hr0.0 mm/hr 0.00 in0.0 mm
06:55 AM 42.1°F5.6°C 42.1°F5.6°C 100% - N16091.8 kmh N -- 30.13 in1020.3 mb 0.00 in0.0 mm 0.00 in/hr0.0 mm/hr 0.00 in0.0 mm
07:01 AM 42.1°F5.6°C 42.1°F5.6°C 100% - N16091.8 kmh N -- 30.13 in1020.3 mb 0.00 in0.0 mm 0.00 in/hr0.0 mm/hr 0.00 in0.0 mm
07:06 AM 42.1°F5.6°C 42.1°F5.6°C 100% - N16091.8 kmh N -- 30.13 in1020.3 mb 0.00 in0.0 mm 0.00 in/hr0.0 mm/hr 0.00 in0.0 mm
07:11 AM 42.3°F5.7°C 42.3°F5.7°C 100% - N16091.8 kmh N -- 30.13 in1020.3 mb 0.00 in0.0 mm 0.00 in/hr0.0 mm/hr 0.00 in0.0 mm
07:17 AM 42.3°F5.7°C 42.3°F5.7°C 100% - N16091.8 kmh N -- 30.13 in1020.3 mb 0.00 in0.0 mm 0.00 in/hr0.0 mm/hr 0.00 in0.0 mm
07:22 AM 42.3°F5.7°C 42.3°F5.7°C 100% - N16091.8 kmh N -- 30.13 in1020.3 mb 0.00 in0.0 mm 0.00 in/hr0.0 mm/hr 0.00 in0.0 mm
07:27 AM 42.3°F5.7°C 42.3°F5.7°C 100% - N16091.8 kmh N -- 30.13 in1020.3 mb 0.00 in0.0 mm 0.00 in/hr0.0 mm/hr 0.00 in0.0 mm
07:32 AM 42.3°F5.7°C 42.3°F5.7°C 100% - N16091.8 kmh N -- 30.13 in1020.3 mb 0.00 in0.0 mm 0.00 in/hr0.0 mm/hr 0.00 in0.0 mm
07:37 AM 42.3°F5.7°C 42.3°F5.7°C 100% - N16091.8 kmh N -- 30.13 in1020.3 mb 0.00 in0.0 mm 0.00 in/hr0.0 mm/hr 0.00 in0.0 mm
07:42 AM 42.3°F5.7°C 42.3°F5.7°C 100% - N16091.8 kmh N -- 30.13 in1020.3 mb 0.00 in0.0 mm 0.00 in/hr0.0 mm/hr 0.00 in0.0 mm
07:47 AM 42.1°F5.6°C 42.1°F5.6°C 100% - N16091.8 kmh N -- 30.13 in1020.3 mb 0.00 in0.0 mm 0.00 in/hr0.0 mm/hr 0.00 in0.0 mm
07:52 AM 42.1°F5.6°C 42.1°F5.6°C 100% - N16091.8 kmh N -- 30.13 in1020.3 mb 0.00 in0.0 mm 0.00 in/hr0.0 mm/hr 0.00 in0.0 mm
07:57 AM 42.1°F5.6°C 42.1°F5.6°C 100% - N16091.8 kmh N -- 30.13 in1020.3 mb 0.00 in0.0 mm 0.00 in/hr0.0 mm/hr 0.00 in0.0 mm
08:02 AM 42.1°F5.6°C 42.1°F5.6°C 100% - N16091.8 kmh N -- 30.13 in1020.3 mb 0.00 in0.0 mm 0.00 in/hr0.0 mm/hr 0.00 in0.0 mm
08:08 AM 42.3°F5.7°C 42.3°F5.7°C 100% - N16091.8 kmh N -- 30.13 in1020.3 mb 0.00 in0.0 mm 0.00 in/hr0.0 mm/hr 0.00 in0.0 mm
08:13 AM 42.6°F5.9°C 42.6°F5.9°C 100% - N16091.8 kmh N -- 30.13 in1020.3 mb 0.00 in0.0 mm 0.00 in/hr0.0 mm/hr 0.00 in0.0 mm
08:18 AM 43.0°F6.1°C 43.0°F6.1°C 100% - N16091.8 kmh N -- 30.13 in1020.3 mb 0.00 in0.0 mm 0.00 in/hr0.0 mm/hr 0.00 in0.0 mm
08:23 AM 43.3°F6.3°C 43.3°F6.3°C 100% - N16091.8 kmh N -- 30.13 in1020.3 mb 0.00 in0.0 mm 0.00 in/hr0.0 mm/hr 0.00 in0.0 mm
08:28 AM 43.9°F6.6°C 43.9°F6.6°C 100% - N16091.8 kmh N -- 30.13 in1020.3 mb 0.00 in0.0 mm 0.00 in/hr0.0 mm/hr 0.00 in0.0 mm
08:33 AM 44.4°F6.9°C 44.4°F6.9°C 100% - N16091.8 kmh N -- 30.13 in1020.3 mb 0.00 in0.0 mm 0.00 in/hr0.0 mm/hr 0.00 in0.0 mm
08:38 AM 45.1°F7.3°C 45.1°F7.3°C 100% - N16091.8 kmh N -- 30.13 in1020.3 mb 0.00 in0.0 mm 0.00 in/hr0.0 mm/hr 0.00 in0.0 mm
08:43 AM 45.9°F7.7°C 45.9°F7.7°C 100% - N16091.8 kmh N -- 30.13 in1020.3 mb 0.00 in0.0 mm 0.00 in/hr0.0 mm/hr 0.00 in0.0 mm
08:48 AM 46.6°F8.1°C 46.6°F8.1°C 100% - N16091.8 kmh N -- 30.13 in1020.3 mb 0.00 in0.0 mm 0.00 in/hr0.0 mm/hr 0.00 in0.0 mm
08:53 AM 47.1°F8.4°C 47.1°F8.4°C 100% - N16091.8 kmh N -- 30.13 in1020.3 mb 0.00 in0.0 mm 0.00 in/hr0.0 mm/hr 0.00 in0.0 mm
08:58 AM 47.7°F8.7°C 47.7°F8.7°C 100% - N16091.8 kmh N -- 30.13 in1020.3 mb 0.00 in0.0 mm 0.00 in/hr0.0 mm/hr 0.00 in0.0 mm
09:03 AM 48.2°F9.0°C 48.2°F9.0°C 100% - N16091.8 kmh N -- 30.13 in1020.3 mb 0.00 in0.0 mm 0.00 in/hr0.0 mm/hr 0.00 in0.0 mm
09:08 AM 48.6°F9.2°C 48.6°F9.2°C 100% - N16091.8 kmh N -- 30.13 in1020.3 mb 0.00 in0.0 mm 0.00 in/hr0.0 mm/hr 0.00 in0.0 mm
09:13 AM 49.1°F9.5°C 49.1°F9.5°C 100% - N16091.8 kmh N -- 30.13 in1020.3 mb 0.00 in0.0 mm 0.00 in/hr0.0 mm/hr 0.00 in0.0 mm
09:18 AM 49.6°F9.8°C 49.6°F9.8°C 100% - N16091.8 kmh N -- 30.13 in1020.3 mb 0.00 in0.0 mm 0.00 in/hr0.0 mm/hr 0.00 in0.0 mm
09:23 AM 50.2°F10.1°C 50.2°F10.1°C 100% - N16091.8 kmh N -- 30.13 in1020.3 mb 0.00 in0.0 mm 0.00 in/hr0.0 mm/hr 0.00 in0.0 mm
09:29 AM 51.1°F10.6°C 51.1°F10.6°C 100% - N16091.8 kmh N -- 30.13 in1020.3 mb 0.00 in0.0 mm 0.00 in/hr0.0 mm/hr 0.00 in0.0 mm
09:34 AM 51.8°F11.0°C 51.8°F11.0°C 100% - N16091.8 kmh N -- 30.13 in1020.3 mb 0.00 in0.0 mm 0.00 in/hr0.0 mm/hr 0.00 in0.0 mm
09:39 AM 52.5°F11.4°C 52.5°F11.4°C 100% - N16091.8 kmh N -- 30.13 in1020.3 mb 0.00 in0.0 mm 0.00 in/hr0.0 mm/hr 0.00 in0.0 mm
09:45 AM 53.1°F11.7°C 53.1°F11.7°C 100% - N16091.8 kmh N -- 30.13 in1020.3 mb 0.00 in0.0 mm 0.00 in/hr0.0 mm/hr 0.00 in0.0 mm
09:50 AM 53.6°F12.0°C 53.6°F12.0°C 100% - N16091.8 kmh N -- 30.13 in1020.3 mb 0.00 in0.0 mm 0.00 in/hr0.0 mm/hr 0.00 in0.0 mm
09:54 AM 54.3°F12.4°C 54.3°F12.4°C 100% - N16091.8 kmh N -- 30.13 in1020.3 mb 0.00 in0.0 mm 0.00 in/hr0.0 mm/hr 0.00 in0.0 mm
10:00 AM 54.9°F12.7°C 54.9°F12.7°C 100% - N16091.8 kmh N -- 30.13 in1020.3 mb 0.00 in0.0 mm 0.00 in/hr0.0 mm/hr 0.00 in0.0 mm
10:05 AM 55.6°F13.1°C 55.0°F12.8°C 98% - N16091.8 kmh N -- 30.13 in1020.3 mb 0.00 in0.0 mm 0.00 in/hr0.0 mm/hr 0.00 in0.0 mm
10:10 AM 55.9°F13.3°C 55.3°F12.9°C 98% - N16091.8 kmh N -- 30.13 in1020.3 mb 0.00 in0.0 mm 0.00 in/hr0.0 mm/hr 0.00 in0.0 mm
10:15 AM 56.3°F13.5°C 54.2°F12.3°C 93% - N16091.8 kmh N -- 30.13 in1020.3 mb 0.00 in0.0 mm 0.00 in/hr0.0 mm/hr 0.00 in0.0 mm
10:22 AM 56.8°F13.8°C 53.2°F11.8°C 88% - N16091.8 kmh N -- 30.13 in1020.3 mb 0.00 in0.0 mm 0.00 in/hr0.0 mm/hr 0.00 in0.0 mm
10:27 AM 57.2°F14.0°C 54.4°F12.4°C 90% - N16091.8 kmh N -- 30.13 in1020.3 mb 0.00 in0.0 mm 0.00 in/hr0.0 mm/hr 0.00 in0.0 mm
10:33 AM 57.6°F14.2°C 50.9°F10.5°C 78% - N16091.8 kmh N -- 30.13 in1020.3 mb 0.00 in0.0 mm 0.00 in/hr0.0 mm/hr 0.00 in0.0 mm
10:38 AM 57.7°F14.3°C 48.3°F9.1°C 71% - N16091.8 kmh N -- 30.13 in1020.3 mb 0.00 in0.0 mm 0.00 in/hr0.0 mm/hr 0.00 in0.0 mm
10:44 AM 57.9°F14.4°C 50.3°F10.2°C 76% - N16091.8 kmh N -- 30.13 in1020.3 mb 0.00 in0.0 mm 0.00 in/hr0.0 mm/hr 0.00 in0.0 mm
10:49 AM 58.1°F14.5°C 49.6°F9.8°C 73% - N16091.8 kmh N -- 30.13 in1020.3 mb 0.00 in0.0 mm 0.00 in/hr0.0 mm/hr 0.00 in0.0 mm
10:54 AM 58.5°F14.7°C 48.2°F9.0°C 68% - N16091.8 kmh N -- 30.13 in1020.3 mb 0.00 in0.0 mm 0.00 in/hr0.0 mm/hr 0.00 in0.0 mm
10:59 AM 58.8°F14.9°C 48.5°F9.2°C 68% - N16091.8 kmh N -- 30.10 in1019.3 mb 0.00 in0.0 mm 0.00 in/hr0.0 mm/hr 0.00 in0.0 mm
11:04 AM 59.4°F15.2°C 50.0°F10.0°C 71% - N16091.8 kmh N -- 30.10 in1019.3 mb 0.00 in0.0 mm 0.00 in/hr0.0 mm/hr 0.00 in0.0 mm
11:09 AM 59.7°F15.4°C 48.3°F9.1°C 66% - N16091.8 kmh N -- 30.10 in1019.3 mb 0.00 in0.0 mm 0.00 in/hr0.0 mm/hr 0.00 in0.0 mm
11:15 AM 60.3°F15.7°C 48.9°F9.4°C 66% - N16091.8 kmh N -- 30.10 in1019.3 mb 0.00 in0.0 mm 0.00 in/hr0.0 mm/hr 0.00 in0.0 mm
11:20 AM 60.6°F15.9°C 49.2°F9.6°C 66% - N16091.8 kmh N -- 30.10 in1019.3 mb 0.00 in0.0 mm 0.00 in/hr0.0 mm/hr 0.00 in0.0 mm
11:24 AM 61.2°F16.2°C 48.7°F9.3°C 63% - N16091.8 kmh N -- 30.10 in1019.3 mb 0.00 in0.0 mm 0.00 in/hr0.0 mm/hr 0.00 in0.0 mm
11:29 AM 61.7°F16.5°C 49.2°F9.6°C 63% - N16091.8 kmh N -- 30.10 in1019.3 mb 0.00 in0.0 mm 0.00 in/hr0.0 mm/hr 0.00 in0.0 mm
11:34 AM 62.1°F16.7°C 49.6°F9.8°C 63% - N16091.8 kmh N -- 30.10 in1019.3 mb 0.00 in0.0 mm 0.00 in/hr0.0 mm/hr 0.00 in0.0 mm
11:40 AM 62.2°F16.8°C 49.7°F9.8°C 63% - N16091.8 kmh N -- 30.10 in1019.3 mb 0.00 in0.0 mm 0.00 in/hr0.0 mm/hr 0.00 in0.0 mm
11:45 AM 62.6°F17.0°C 46.7°F8.2°C 56% - N16091.8 kmh N -- 30.10 in1019.3 mb 0.00 in0.0 mm 0.00 in/hr0.0 mm/hr 0.00 in0.0 mm
11:50 AM 62.6°F17.0°C 42.8°F6.0°C 48% - N16091.8 kmh N -- 30.10 in1019.3 mb 0.00 in0.0 mm 0.00 in/hr0.0 mm/hr 0.00 in0.0 mm
11:55 AM 63.0°F17.2°C 43.2°F6.2°C 48% - N16091.8 kmh N -- 30.10 in1019.3 mb 0.00 in0.0 mm 0.00 in/hr0.0 mm/hr 0.00 in0.0 mm
12:00 PM 63.3°F17.4°C 43.5°F6.4°C 48% - N16091.8 kmh N -- 30.10 in1019.3 mb 0.00 in0.0 mm 0.00 in/hr0.0 mm/hr 0.00 in0.0 mm
12:06 PM 63.5°F17.5°C 40.8°F4.9°C 44% - N16091.8 kmh N -- 30.10 in1019.3 mb 0.00 in0.0 mm 0.00 in/hr0.0 mm/hr 0.00 in0.0 mm
12:11 PM 63.9°F17.7°C 41.1°F5.1°C 44% - N16091.8 kmh N -- 30.10 in1019.3 mb 0.00 in0.0 mm 0.00 in/hr0.0 mm/hr 0.00 in0.0 mm
12:16 PM 64.6°F18.1°C 40.2°F4.6°C 41% - N16091.8 kmh N -- 30.07 in1018.3 mb 0.00 in0.0 mm 0.00 in/hr0.0 mm/hr 0.00 in0.0 mm
12:21 PM 65.1°F18.4°C 40.7°F4.8°C 41% - N16091.8 kmh N -- 30.07 in1018.3 mb 0.00 in0.0 mm 0.00 in/hr0.0 mm/hr 0.00 in0.0 mm
12:27 PM 65.5°F18.6°C 41.0°F5.0°C 41% - N16091.8 kmh N -- 30.07 in1018.3 mb 0.00 in0.0 mm 0.00 in/hr0.0 mm/hr 0.00 in0.0 mm
12:32 PM 65.7°F18.7°C 41.2°F5.1°C 41% - N16091.8 kmh N -- 30.07 in1018.3 mb 0.00 in0.0 mm 0.00 in/hr0.0 mm/hr 0.00 in0.0 mm
12:37 PM 65.8°F18.8°C 37.9°F3.3°C 36% - N16091.8 kmh N -- 30.07 in1018.3 mb 0.00 in0.0 mm 0.00 in/hr0.0 mm/hr 0.00 in0.0 mm
12:42 PM 66.4°F19.1°C 36.7°F2.6°C 34% - N16091.8 kmh N -- 30.07 in1018.3 mb 0.00 in0.0 mm 0.00 in/hr0.0 mm/hr 0.00 in0.0 mm
12:47 PM 66.7°F19.3°C 36.9°F2.7°C 34% - N16091.8 kmh N -- 30.07 in1018.3 mb 0.00 in0.0 mm 0.00 in/hr0.0 mm/hr 0.00 in0.0 mm
12:52 PM 67.1°F19.5°C 37.3°F2.9°C 34% - N16091.8 kmh N -- 30.07 in1018.3 mb 0.00 in0.0 mm 0.00 in/hr0.0 mm/hr 0.00 in0.0 mm
12:57 PM 67.5°F19.7°C 37.6°F3.1°C 34% - N16091.8 kmh N -- 30.07 in1018.3 mb 0.00 in0.0 mm 0.00 in/hr0.0 mm/hr 0.00 in0.0 mm
01:01 PM 68.0°F20.0°C 38.1°F3.4°C 34% - N16091.8 kmh N -- 30.07 in1018.3 mb 0.00 in0.0 mm 0.00 in/hr0.0 mm/hr 0.00 in0.0 mm
01:07 PM 68.9°F20.5°C 38.9°F3.8°C 34% - N16091.8 kmh N -- 30.07 in1018.3 mb 0.00 in0.0 mm 0.00 in/hr0.0 mm/hr 0.00 in0.0 mm
01:12 PM 69.4°F20.8°C 39.3°F4.1°C 34% - N16091.8 kmh N -- 30.07 in1018.3 mb 0.00 in0.0 mm 0.00 in/hr0.0 mm/hr 0.00 in0.0 mm
01:17 PM 69.4°F20.8°C 39.3°F4.1°C 34% - N16091.8 kmh N -- 30.04 in1017.3 mb 0.00 in0.0 mm 0.00 in/hr0.0 mm/hr 0.00 in0.0 mm
01:22 PM 69.1°F20.6°C 39.0°F3.9°C 34% - N16091.8 kmh N -- 30.04 in1017.3 mb 0.00 in0.0 mm 0.00 in/hr0.0 mm/hr 0.00 in0.0 mm
01:27 PM 68.4°F20.2°C 38.4°F3.6°C 34% - N16091.8 kmh N -- 30.04 in1017.3 mb 0.00 in0.0 mm 0.00 in/hr0.0 mm/hr 0.00 in0.0 mm
01:32 PM 68.2°F20.1°C 38.2°F3.4°C 34% - N16091.8 kmh N -- 30.04 in1017.3 mb 0.00 in0.0 mm 0.00 in/hr0.0 mm/hr 0.00 in0.0 mm
01:38 PM 68.4°F20.2°C 38.4°F3.6°C 34% - N16091.8 kmh N -- 30.04 in1017.3 mb 0.00 in0.0 mm 0.00 in/hr0.0 mm/hr 0.00 in0.0 mm
01:43 PM 68.4°F20.2°C 38.4°F3.6°C 34% - N16091.8 kmh N -- 30.04 in1017.3 mb 0.00 in0.0 mm 0.00 in/hr0.0 mm/hr 0.00 in0.0 mm
01:48 PM 68.4°F20.2°C 38.4°F3.6°C 34% - N16091.8 kmh N -- 30.04 in1017.3 mb 0.00 in0.0 mm 0.00 in/hr0.0 mm/hr 0.00 in0.0 mm
01:53 PM 68.4°F20.2°C 38.4°F3.6°C 34% - N16091.8 kmh N -- 30.04 in1017.3 mb 0.00 in0.0 mm 0.00 in/hr0.0 mm/hr 0.00 in0.0 mm
01:58 PM 68.0°F20.0°C 38.1°F3.4°C 34% - N16091.8 kmh N -- 30.04 in1017.3 mb 0.00 in0.0 mm 0.00 in/hr0.0 mm/hr 0.00 in0.0 mm
02:03 PM 68.0°F20.0°C 38.1°F3.4°C 34% - N16091.8 kmh N -- 30.01 in1016.3 mb 0.00 in0.0 mm 0.00 in/hr0.0 mm/hr 0.00 in0.0 mm
02:08 PM 68.0°F20.0°C 38.1°F3.4°C 34% - N16091.8 kmh N -- 30.01 in1016.3 mb 0.00 in0.0 mm 0.00 in/hr0.0 mm/hr 0.00 in0.0 mm
02:13 PM 68.0°F20.0°C 38.1°F3.4°C 34% - N16091.8 kmh N -- 30.01 in1016.3 mb 0.00 in0.0 mm 0.00 in/hr0.0 mm/hr 0.00 in0.0 mm
02:18 PM 68.0°F20.0°C 38.1°F3.4°C 34% - N16091.8 kmh N -- 30.01 in1016.3 mb 0.00 in0.0 mm 0.00 in/hr0.0 mm/hr 0.00 in0.0 mm
02:23 PM 68.0°F20.0°C 38.1°F3.4°C 34% - N16091.8 kmh N -- 30.01 in1016.3 mb 0.00 in0.0 mm 0.00 in/hr0.0 mm/hr 0.00 in0.0 mm
02:28 PM 67.8°F19.9°C 37.9°F3.3°C 34% - N16091.8 kmh N -- 30.01 in1016.3 mb 0.00 in0.0 mm 0.00 in/hr0.0 mm/hr 0.00 in0.0 mm
02:33 PM 67.6°F19.8°C 37.7°F3.2°C 34% - N16091.8 kmh N -- 30.01 in1016.3 mb 0.00 in0.0 mm 0.00 in/hr0.0 mm/hr 0.00 in0.0 mm
02:39 PM 67.6°F19.8°C 37.7°F3.2°C 34% - N16091.8 kmh N -- 30.01 in1016.3 mb 0.00 in0.0 mm 0.00 in/hr0.0 mm/hr 0.00 in0.0 mm
02:44 PM 67.5°F19.7°C 37.6°F3.1°C 34% - N16091.8 kmh N -- 30.01 in1016.3 mb 0.00 in0.0 mm 0.00 in/hr0.0 mm/hr 0.00 in0.0 mm
02:49 PM 67.5°F19.7°C 37.6°F3.1°C 34% - N16091.8 kmh N -- 30.01 in1016.3 mb 0.00 in0.0 mm 0.00 in/hr0.0 mm/hr 0.00 in0.0 mm
02:54 PM 67.5°F19.7°C 37.6°F3.1°C 34% - N16091.8 kmh N -- 30.01 in1016.3 mb 0.00 in0.0 mm 0.00 in/hr0.0 mm/hr 0.00 in0.0 mm
02:59 PM 67.6°F19.8°C 37.7°F3.2°C 34% - N16091.8 kmh N -- 30.01 in1016.3 mb 0.00 in0.0 mm 0.00 in/hr0.0 mm/hr 0.00 in0.0 mm
03:04 PM 67.6°F19.8°C 37.7°F3.2°C 34% - N16091.8 kmh N -- 30.01 in1016.3 mb 0.00 in0.0 mm 0.00 in/hr0.0 mm/hr 0.00 in0.0 mm
03:09 PM 67.6°F19.8°C 37.7°F3.2°C 34% - N16091.8 kmh N -- 30.01 in1016.3 mb 0.00 in0.0 mm 0.00 in/hr0.0 mm/hr 0.00 in0.0 mm
03:14 PM 67.6°F19.8°C 37.7°F3.2°C 34% - N16091.8 kmh N -- 30.01 in1016.3 mb 0.00 in0.0 mm 0.00 in/hr0.0 mm/hr 0.00 in0.0 mm
03:19 PM 67.6°F19.8°C 37.7°F3.2°C 34% - N16091.8 kmh N -- 30.01 in1016.3 mb 0.00 in0.0 mm 0.00 in/hr0.0 mm/hr 0.00 in0.0 mm
03:24 PM 67.6°F19.8°C 37.7°F3.2°C 34% - N16091.8 kmh N -- 30.01 in1016.3 mb 0.00 in0.0 mm 0.00 in/hr0.0 mm/hr 0.00 in0.0 mm
03:29 PM 67.6°F19.8°C 37.7°F3.2°C 34% - N16091.8 kmh N -- 29.98 in1015.2 mb 0.00 in0.0 mm 0.00 in/hr0.0 mm/hr 0.00 in0.0 mm
03:34 PM 67.5°F19.7°C 37.6°F3.1°C 34% - N16091.8 kmh N -- 29.98 in1015.2 mb 0.00 in0.0 mm 0.00 in/hr0.0 mm/hr 0.00 in0.0 mm
03:39 PM 67.6°F19.8°C 37.7°F3.2°C 34% - N16091.8 kmh N -- 29.98 in1015.2 mb 0.00 in0.0 mm 0.00 in/hr0.0 mm/hr 0.00 in0.0 mm
03:44 PM 67.6°F19.8°C 37.7°F3.2°C 34% - N16091.8 kmh N -- 29.98 in1015.2 mb 0.00 in0.0 mm 0.00 in/hr0.0 mm/hr 0.00 in0.0 mm
03:49 PM 67.5°F19.7°C 37.6°F3.1°C 34% - N16091.8 kmh N -- 29.98 in1015.2 mb 0.00 in0.0 mm 0.00 in/hr0.0 mm/hr 0.00 in0.0 mm
03:54 PM 67.6°F19.8°C 37.7°F3.2°C 34% - N16091.8 kmh N -- 29.98 in1015.2 mb 0.00 in0.0 mm 0.00 in/hr0.0 mm/hr 0.00 in0.0 mm
04:00 PM 67.6°F19.8°C 37.7°F3.2°C 34% - N16091.8 kmh N -- 29.98 in1015.2 mb 0.00 in0.0 mm 0.00 in/hr0.0 mm/hr 0.00 in0.0 mm
04:05 PM 67.6°F19.8°C 37.7°F3.2°C 34% - N16091.8 kmh N -- 29.98 in1015.2 mb 0.00 in0.0 mm 0.00 in/hr0.0 mm/hr 0.00 in0.0 mm
04:12 PM 67.6°F19.8°C 37.7°F3.2°C 34% - N16091.8 kmh N -- 29.98 in1015.2 mb 0.00 in0.0 mm 0.00 in/hr0.0 mm/hr 0.00 in0.0 mm
04:17 PM 67.6°F19.8°C 37.7°F3.2°C 34% - N16091.8 kmh N -- 29.98 in1015.2 mb 0.00 in0.0 mm 0.00 in/hr0.0 mm/hr 0.00 in0.0 mm
04:22 PM 67.5°F19.7°C 37.6°F3.1°C 34% - N16091.8 kmh N -- 29.98 in1015.2 mb 0.00 in0.0 mm 0.00 in/hr0.0 mm/hr 0.00 in0.0 mm
04:27 PM 67.5°F19.7°C 37.6°F3.1°C 34% - N16091.8 kmh N -- 29.98 in1015.2 mb 0.00 in0.0 mm 0.00 in/hr0.0 mm/hr 0.00 in0.0 mm
04:32 PM 67.5°F19.7°C 37.6°F3.1°C 34% - N16091.8 kmh N -- 29.98 in1015.2 mb 0.00 in0.0 mm 0.00 in/hr0.0 mm/hr 0.00 in0.0 mm
04:37 PM 67.3°F19.6°C 37.4°F3.0°C 34% - N16091.8 kmh N -- 29.98 in1015.2 mb 0.00 in0.0 mm 0.00 in/hr0.0 mm/hr 0.00 in0.0 mm
04:42 PM 67.1°F19.5°C 37.3°F2.9°C 34% - N16091.8 kmh N -- 29.98 in1015.2 mb 0.00 in0.0 mm 0.00 in/hr0.0 mm/hr 0.00 in0.0 mm
04:47 PM 66.9°F19.4°C 37.1°F2.8°C 34% - N16091.8 kmh N -- 29.98 in1015.2 mb 0.00 in0.0 mm 0.00 in/hr0.0 mm/hr 0.00 in0.0 mm
04:53 PM 66.7°F19.3°C 36.9°F2.7°C 34% - N16091.8 kmh N -- 29.98 in1015.2 mb 0.00 in0.0 mm 0.00 in/hr0.0 mm/hr 0.00 in0.0 mm
04:58 PM 66.7°F19.3°C 36.9°F2.7°C 34% - N16091.8 kmh N -- 29.98 in1015.2 mb 0.00 in0.0 mm 0.00 in/hr0.0 mm/hr 0.00 in0.0 mm
05:04 PM 66.4°F19.1°C 36.7°F2.6°C 34% - N16091.8 kmh N -- 29.98 in1015.2 mb 0.00 in0.0 mm 0.00 in/hr0.0 mm/hr 0.00 in0.0 mm
05:09 PM 66.4°F19.1°C 36.7°F2.6°C 34% - N16091.8 kmh N -- 29.98 in1015.2 mb 0.00 in0.0 mm 0.00 in/hr0.0 mm/hr 0.00 in0.0 mm
05:15 PM 66.4°F19.1°C 36.7°F2.6°C 34% - N16091.8 kmh N -- 29.98 in1015.2 mb 0.00 in0.0 mm 0.00 in/hr0.0 mm/hr 0.00 in0.0 mm
05:20 PM 66.4°F19.1°C 36.7°F2.6°C 34% - N16091.8 kmh N -- 29.98 in1015.2 mb 0.00 in0.0 mm 0.00 in/hr0.0 mm/hr 0.00 in0.0 mm
05:25 PM 66.4°F19.1°C 36.7°F2.6°C 34% - N16091.8 kmh N -- 29.98 in1015.2 mb 0.00 in0.0 mm 0.00 in/hr0.0 mm/hr 0.00 in0.0 mm
05:30 PM 66.4°F19.1°C 36.7°F2.6°C 34% - N16091.8 kmh N -- 29.98 in1015.2 mb 0.00 in0.0 mm 0.00 in/hr0.0 mm/hr 0.00 in0.0 mm
05:35 PM 66.4°F19.1°C 36.7°F2.6°C 34% - N16091.8 kmh N -- 29.98 in1015.2 mb 0.00 in0.0 mm 0.00 in/hr0.0 mm/hr 0.00 in0.0 mm
05:39 PM 66.2°F19.0°C 36.5°F2.5°C 34% - N16091.8 kmh N -- 29.98 in1015.2 mb 0.00 in0.0 mm 0.00 in/hr0.0 mm/hr 0.00 in0.0 mm
05:45 PM 66.0°F18.9°C 38.1°F3.4°C 36% - N16091.8 kmh N -- 29.98 in1015.2 mb 0.00 in0.0 mm 0.00 in/hr0.0 mm/hr 0.00 in0.0 mm
05:50 PM 66.0°F18.9°C 38.1°F3.4°C 36% - N16091.8 kmh N -- 29.98 in1015.2 mb 0.00 in0.0 mm 0.00 in/hr0.0 mm/hr 0.00 in0.0 mm
05:55 PM 65.8°F18.8°C 37.9°F3.3°C 36% - N16091.8 kmh N -- 29.98 in1015.2 mb 0.00 in0.0 mm 0.00 in/hr0.0 mm/hr 0.00 in0.0 mm
06:00 PM 65.7°F18.7°C 37.9°F3.3°C 36% - N16091.8 kmh N -- 29.98 in1015.2 mb 0.00 in0.0 mm 0.00 in/hr0.0 mm/hr 0.00 in0.0 mm
06:07 PM 65.3°F18.5°C 37.5°F3.1°C 36% - N16091.8 kmh N -- 29.98 in1015.2 mb 0.00 in0.0 mm 0.00 in/hr0.0 mm/hr 0.00 in0.0 mm
06:12 PM 64.9°F18.3°C 37.1°F2.8°C 36% - N16091.8 kmh N -- 29.98 in1015.2 mb 0.00 in0.0 mm 0.00 in/hr0.0 mm/hr 0.00 in0.0 mm
06:17 PM 64.6°F18.1°C 36.9°F2.7°C 36% - N16091.8 kmh N -- 29.98 in1015.2 mb 0.00 in0.0 mm 0.00 in/hr0.0 mm/hr 0.00 in0.0 mm
06:22 PM 64.4°F18.0°C 36.7°F2.6°C 36% - N16091.8 kmh N -- 29.98 in1015.2 mb 0.00 in0.0 mm 0.00 in/hr0.0 mm/hr 0.00 in0.0 mm
06:27 PM 64.0°F17.8°C 36.3°F2.4°C 36% - N16091.8 kmh N -- 29.98 in1015.2 mb 0.00 in0.0 mm 0.00 in/hr0.0 mm/hr 0.00 in0.0 mm
06:32 PM 63.7°F17.6°C 36.1°F2.3°C 36% - N16091.8 kmh N -- 29.98 in1015.2 mb 0.00 in0.0 mm 0.00 in/hr0.0 mm/hr 0.00 in0.0 mm
06:37 PM 63.3°F17.4°C 40.6°F4.8°C 44% - N16091.8 kmh N -- 29.98 in1015.2 mb 0.00 in0.0 mm 0.00 in/hr0.0 mm/hr 0.00 in0.0 mm
06:42 PM 63.0°F17.2°C 40.3°F4.6°C 44% - N16091.8 kmh N -- 29.98 in1015.2 mb 0.00 in0.0 mm 0.00 in/hr0.0 mm/hr 0.00 in0.0 mm
06:47 PM 62.6°F17.0°C 40.0°F4.4°C 44% - N16091.8 kmh N -- 29.98 in1015.2 mb 0.00 in0.0 mm 0.00 in/hr0.0 mm/hr 0.00 in0.0 mm
06:52 PM 62.2°F16.8°C 39.6°F4.2°C 44% - N16091.8 kmh N -- 29.98 in1015.2 mb 0.00 in0.0 mm 0.00 in/hr0.0 mm/hr 0.00 in0.0 mm
06:58 PM 61.7°F16.5°C 39.1°F3.9°C 44% - N16091.8 kmh N -- 29.98 in1015.2 mb 0.00 in0.0 mm 0.00 in/hr0.0 mm/hr 0.00 in0.0 mm
07:03 PM 61.3°F16.3°C 43.0°F6.1°C 51% - N16091.8 kmh N -- 29.98 in1015.2 mb 0.00 in0.0 mm 0.00 in/hr0.0 mm/hr 0.00 in0.0 mm
07:09 PM 60.8°F16.0°C 42.5°F5.8°C 51% - N16091.8 kmh N -- 29.98 in1015.2 mb 0.00 in0.0 mm 0.00 in/hr0.0 mm/hr 0.00 in0.0 mm
07:14 PM 60.6°F15.9°C 42.3°F5.7°C 51% - N16091.8 kmh N -- 29.98 in1015.2 mb 0.00 in0.0 mm 0.00 in/hr0.0 mm/hr 0.00 in0.0 mm
07:19 PM 60.3°F15.7°C 45.7°F7.6°C 58% - N16091.8 kmh N -- 29.98 in1015.2 mb 0.00 in0.0 mm 0.00 in/hr0.0 mm/hr 0.00 in0.0 mm
07:24 PM 59.7°F15.4°C 45.1°F7.3°C 58% - N16091.8 kmh N -- 29.98 in1015.2 mb 0.00 in0.0 mm 0.00 in/hr0.0 mm/hr 0.00 in0.0 mm
07:29 PM 59.4°F15.2°C 47.0°F8.3°C 63% - N16091.8 kmh N -- 29.98 in1015.2 mb 0.00 in0.0 mm 0.00 in/hr0.0 mm/hr 0.00 in0.0 mm
07:34 PM 58.8°F14.9°C 47.5°F8.6°C 66% - N16091.8 kmh N -- 29.98 in1015.2 mb 0.00 in0.0 mm 0.00 in/hr0.0 mm/hr 0.00 in0.0 mm
07:40 PM 58.5°F14.7°C 48.2°F9.0°C 68% - N16091.8 kmh N -- 29.98 in1015.2 mb 0.00 in0.0 mm 0.00 in/hr0.0 mm/hr 0.00 in0.0 mm
07:45 PM 58.1°F14.5°C 47.8°F8.8°C 68% - N16091.8 kmh N -- 29.98 in1015.2 mb 0.00 in0.0 mm 0.00 in/hr0.0 mm/hr 0.00 in0.0 mm
07:50 PM 57.9°F14.4°C 47.6°F8.7°C 68% - N16091.8 kmh N -- 29.98 in1015.2 mb 0.00 in0.0 mm 0.00 in/hr0.0 mm/hr 0.00 in0.0 mm
07:55 PM 57.6°F14.2°C 47.3°F8.5°C 68% - N16091.8 kmh N -- 29.98 in1015.2 mb 0.00 in0.0 mm 0.00 in/hr0.0 mm/hr 0.00 in0.0 mm
07:59 PM 57.4°F14.1°C 47.1°F8.4°C 68% - N16091.8 kmh N -- 29.98 in1015.2 mb 0.00 in0.0 mm 0.00 in/hr0.0 mm/hr 0.00 in0.0 mm
08:04 PM 57.2°F14.0°C 46.9°F8.3°C 68% - N16091.8 kmh N -- 29.98 in1015.2 mb 0.00 in0.0 mm 0.00 in/hr0.0 mm/hr 0.00 in0.0 mm
08:10 PM 57.0°F13.9°C 47.7°F8.7°C 71% - N16091.8 kmh N -- 29.98 in1015.2 mb 0.00 in0.0 mm 0.00 in/hr0.0 mm/hr 0.00 in0.0 mm
08:14 PM 56.8°F13.8°C 48.4°F9.1°C 73% - N16091.8 kmh N -- 29.98 in1015.2 mb 0.00 in0.0 mm 0.00 in/hr0.0 mm/hr 0.00 in0.0 mm
08:20 PM 56.7°F13.7°C 48.3°F9.1°C 73% - N16091.8 kmh N -- 29.98 in1015.2 mb 0.00 in0.0 mm 0.00 in/hr0.0 mm/hr 0.00 in0.0 mm
08:25 PM 56.7°F13.7°C 48.3°F9.1°C 73% - N16091.8 kmh N -- 29.98 in1015.2 mb 0.00 in0.0 mm 0.00 in/hr0.0 mm/hr 0.00 in0.0 mm
08:30 PM 56.5°F13.6°C 49.0°F9.4°C 76% - N16091.8 kmh N -- 30.01 in1016.3 mb 0.00 in0.0 mm 0.00 in/hr0.0 mm/hr 0.00 in0.0 mm
08:35 PM 56.3°F13.5°C 48.8°F9.3°C 76% - N16091.8 kmh N -- 30.01 in1016.3 mb 0.00 in0.0 mm 0.00 in/hr0.0 mm/hr 0.00 in0.0 mm
08:40 PM 56.1°F13.4°C 48.6°F9.2°C 76% - N16091.8 kmh N -- 30.01 in1016.3 mb 0.00 in0.0 mm 0.00 in/hr0.0 mm/hr 0.00 in0.0 mm
08:45 PM 56.1°F13.4°C 48.6°F9.2°C 76% - N16091.8 kmh N -- 30.01 in1016.3 mb 0.00 in0.0 mm 0.00 in/hr0.0 mm/hr 0.00 in0.0 mm
08:51 PM 55.9°F13.3°C 49.2°F9.6°C 78% - N16091.8 kmh N -- 30.01 in1016.3 mb 0.00 in0.0 mm 0.00 in/hr0.0 mm/hr 0.00 in0.0 mm
08:56 PM 55.9°F13.3°C 50.0°F10.0°C 81% - N16091.8 kmh N -- 30.01 in1016.3 mb 0.00 in0.0 mm 0.00 in/hr0.0 mm/hr 0.00 in0.0 mm
09:02 PM 55.8°F13.2°C 50.7°F10.4°C 83% - N16091.8 kmh N -- 30.01 in1016.3 mb 0.00 in0.0 mm 0.00 in/hr0.0 mm/hr 0.00 in0.0 mm
09:07 PM 55.8°F13.2°C 51.5°F10.8°C 85% - N16091.8 kmh N -- 30.01 in1016.3 mb 0.00 in0.0 mm 0.00 in/hr0.0 mm/hr 0.00 in0.0 mm
09:12 PM 55.8°F13.2°C 52.2°F11.2°C 88% - N16091.8 kmh N -- 30.01 in1016.3 mb 0.00 in0.0 mm 0.00 in/hr0.0 mm/hr 0.00 in0.0 mm
09:17 PM 55.8°F13.2°C 52.2°F11.2°C 88% - N16091.8 kmh N -- 30.01 in1016.3 mb 0.00 in0.0 mm 0.00 in/hr0.0 mm/hr 0.00 in0.0 mm
09:24 PM 55.8°F13.2°C 53.0°F11.7°C 90% - N16091.8 kmh N -- 30.01 in1016.3 mb 0.00 in0.0 mm 0.00 in/hr0.0 mm/hr 0.00 in0.0 mm
09:29 PM 55.8°F13.2°C 53.0°F11.7°C 90% - N16091.8 kmh N -- 30.01 in1016.3 mb 0.00 in0.0 mm 0.00 in/hr0.0 mm/hr 0.00 in0.0 mm
09:34 PM 55.8°F13.2°C 53.0°F11.7°C 90% - N16091.8 kmh N -- 30.01 in1016.3 mb 0.00 in0.0 mm 0.00 in/hr0.0 mm/hr 0.00 in0.0 mm
09:39 PM 55.8°F13.2°C 53.0°F11.7°C 90% - N16091.8 kmh N -- 30.01 in1016.3 mb 0.00 in0.0 mm 0.00 in/hr0.0 mm/hr 0.00 in0.0 mm
09:44 PM 55.8°F13.2°C 53.0°F11.7°C 90% - N16091.8 kmh N -- 29.98 in1015.2 mb 0.00 in0.0 mm 0.00 in/hr0.0 mm/hr 0.00 in0.0 mm
09:49 PM 55.9°F13.3°C 53.8°F12.1°C 93% - N16091.8 kmh N -- 29.98 in1015.2 mb 0.00 in0.0 mm 0.00 in/hr0.0 mm/hr 0.00 in0.0 mm
09:54 PM 55.9°F13.3°C 53.8°F12.1°C 93% - N16091.8 kmh N -- 29.98 in1015.2 mb 0.00 in0.0 mm 0.00 in/hr0.0 mm/hr 0.00 in0.0 mm
09:59 PM 56.1°F13.4°C 54.0°F12.2°C 93% - N16091.8 kmh N -- 29.98 in1015.2 mb 0.00 in0.0 mm 0.00 in/hr0.0 mm/hr 0.00 in0.0 mm
10:04 PM 56.5°F13.6°C 54.4°F12.4°C 93% - N16091.8 kmh N -- 29.98 in1015.2 mb 0.00 in0.0 mm 0.00 in/hr0.0 mm/hr 0.00 in0.0 mm
10:09 PM 56.7°F13.7°C 54.6°F12.6°C 93% - N16091.8 kmh N -- 29.98 in1015.2 mb 0.00 in0.0 mm 0.00 in/hr0.0 mm/hr 0.00 in0.0 mm
10:14 PM 56.8°F13.8°C 54.7°F12.6°C 93% - N16091.8 kmh N -- 29.98 in1015.2 mb 0.00 in0.0 mm 0.00 in/hr0.0 mm/hr 0.00 in0.0 mm
10:19 PM 57.0°F13.9°C 54.9°F12.7°C 93% - N16091.8 kmh N -- 29.98 in1015.2 mb 0.00 in0.0 mm 0.00 in/hr0.0 mm/hr 0.00 in0.0 mm
10:24 PM 57.2°F14.0°C 55.1°F12.8°C 93% - N16091.8 kmh N -- 29.98 in1015.2 mb 0.00 in0.0 mm 0.00 in/hr0.0 mm/hr 0.00 in0.0 mm
10:29 PM 57.2°F14.0°C 55.1°F12.8°C 93% - N16091.8 kmh N -- 29.98 in1015.2 mb 0.00 in0.0 mm 0.00 in/hr0.0 mm/hr 0.00 in0.0 mm
10:35 PM 57.2°F14.0°C 55.1°F12.8°C 93% - N16091.8 kmh N -- 29.98 in1015.2 mb 0.00 in0.0 mm 0.00 in/hr0.0 mm/hr 0.00 in0.0 mm
10:40 PM 57.4°F14.1°C 56.0°F13.3°C 95% - N16091.8 kmh N -- 29.98 in1015.2 mb 0.00 in0.0 mm 0.00 in/hr0.0 mm/hr 0.00 in0.0 mm
10:45 PM 57.2°F14.0°C 55.1°F12.8°C 93% - N16091.8 kmh N -- 29.98 in1015.2 mb 0.00 in0.0 mm 0.00 in/hr0.0 mm/hr 0.00 in0.0 mm
10:50 PM 57.2°F14.0°C 55.1°F12.8°C 93% - N16091.8 kmh N -- 29.98 in1015.2 mb 0.00 in0.0 mm 0.00 in/hr0.0 mm/hr 0.00 in0.0 mm
10:55 PM 57.2°F14.0°C 55.8°F13.2°C 95% - N16091.8 kmh N -- 29.98 in1015.2 mb 0.00 in0.0 mm 0.00 in/hr0.0 mm/hr 0.00 in0.0 mm
11:00 PM 57.2°F14.0°C 55.8°F13.2°C 95% - N16091.8 kmh N -- 29.98 in1015.2 mb 0.00 in0.0 mm 0.00 in/hr0.0 mm/hr 0.00 in0.0 mm
11:06 PM 57.2°F14.0°C 55.8°F13.2°C 95% - N16091.8 kmh N -- 29.98 in1015.2 mb 0.00 in0.0 mm 0.00 in/hr0.0 mm/hr 0.00 in0.0 mm
11:11 PM 57.2°F14.0°C 55.8°F13.2°C 95% - N16091.8 kmh N -- 29.98 in1015.2 mb 0.00 in0.0 mm 0.00 in/hr0.0 mm/hr 0.00 in0.0 mm
11:16 PM 57.2°F14.0°C 55.8°F13.2°C 95% - N16091.8 kmh N -- 30.01 in1016.3 mb 0.00 in0.0 mm 0.00 in/hr0.0 mm/hr 0.00 in0.0 mm
11:22 PM 57.2°F14.0°C 55.8°F13.2°C 95% - N16091.8 kmh N -- 30.01 in1016.3 mb 0.00 in0.0 mm 0.00 in/hr0.0 mm/hr 0.00 in0.0 mm
11:26 PM 57.2°F14.0°C 55.8°F13.2°C 95% - N16091.8 kmh N -- 30.01 in1016.3 mb 0.00 in0.0 mm 0.00 in/hr0.0 mm/hr 0.00 in0.0 mm
11:32 PM 57.4°F14.1°C 56.0°F13.3°C 95% - N16091.8 kmh N -- 29.98 in1015.2 mb 0.00 in0.0 mm 0.00 in/hr0.0 mm/hr 0.00 in0.0 mm
11:36 PM 57.4°F14.1°C 56.8°F13.8°C 98% - N16091.8 kmh N -- 29.98 in1015.2 mb 0.00 in0.0 mm 0.00 in/hr0.0 mm/hr 0.00 in0.0 mm
11:42 PM 57.4°F14.1°C 56.8°F13.8°C 98% - N16091.8 kmh N -- 29.98 in1015.2 mb 0.00 in0.0 mm 0.00 in/hr0.0 mm/hr 0.00 in0.0 mm
11:47 PM 57.4°F14.1°C 56.8°F13.8°C 98% - N16091.8 kmh N -- 29.98 in1015.2 mb 0.00 in0.0 mm 0.00 in/hr0.0 mm/hr 0.00 in0.0 mm
11:51 PM 57.6°F14.2°C 57.0°F13.9°C 98% - N16091.8 kmh N -- 29.98 in1015.2 mb 0.00 in0.0 mm 0.00 in/hr0.0 mm/hr 0.00 in0.0 mm
11:57 PM 57.6°F14.2°C 57.0°F13.9°C 98% - N16091.8 kmh N -- 29.98 in1015.2 mb 0.00 in0.0 mm 0.00 in/hr0.0 mm/hr 0.00 in0.0 mm